Stevensville, MD

4:59 AM EDT on July 23, 2017 (GMT -0400)
Stevensville

Weather History for KW29 - September, 2013

Change the Weather History Date:

Sunday, September 29, 2013

  Actual Average (KESN) Record (KESN)
Temperature  
Mean Temperature 63 °F -  
Max Temperature 71 °F 76 °F 91 °F (1954)
Min Temperature 55 °F 55 °F 41 °F (1957)
Degree Days  
Heating Degree Days 2    
Growing Degree Days 13 (Base 50)    
Moisture  
Dew Point 54 °F    
Average Humidity 74    
Maximum Humidity 100    
Minimum Humidity 50    
Precipitation  
Precipitation 0.00 in - - ()
Sea Level Pressure  
Sea Level Pressure 30.14 in    
Wind  
Wind Speed 3 mph (NE)    
Max Wind Speed 9 mph    
Max Gust Speed -    
Visibility 10 miles    
Events      
Averages and records for this station are not official NWS values.
T = Trace of Precipitation, MM = Missing Value Source: NWS Daily Summary

Daily Weather History Graph

Daily Weather History Graph

Search for Another Location

Airport or City:

Trip Planner

Search our weather history database for the weather conditions in past years. The results will help you decide how hot, cold, wet, or windy it might be!

Date:

Astronomy

Sep. 29, 2013 Rise Set
Actual Time 6:59 AM EDT 6:50 PM EDT
Civil Twilight 6:33 AM EDT 7:17 PM EDT
Nautical Twilight 6:02 AM EDT 7:48 PM EDT
Astronomical Twilight 5:30 AM EDT 8:19 PM EDT
Moon 1:41 AM EDT (9/29) 3:43 PM EDT (9/29)
Length of Visible Light 12h 44m
Length of Day
11h 51m
Waning Crescent, 27% of the Moon is Illuminated
Sep 29
Waning Crescent
Oct 4
New
Oct 11
First Quarter
Oct 18
Full
Oct 26
Last Quarter

Hourly Weather History & Observations

Time (EDT) Temp. Dew Point Humidity Pressure Visibility Wind Dir Wind Speed Gust Speed Precip Events Conditions
12:11 AM 57.2 °F 53.6 °F 88% 30.22 in 10.0 mi Calm Calm - N/A   Clear
12:31 AM 55.4 °F 53.6 °F 94% 30.21 in 10.0 mi Calm Calm - N/A   Clear
12:51 AM 55.4 °F 53.6 °F 94% 30.21 in 10.0 mi Calm Calm - N/A   Clear
1:11 AM 55.4 °F 53.6 °F 94% 30.21 in 10.0 mi Calm Calm - N/A   Clear
1:31 AM 55.4 °F 55.4 °F 100% 30.21 in 10.0 mi Calm Calm - N/A   Clear
1:51 AM 57.2 °F 53.6 °F 88% 30.21 in 10.0 mi Calm Calm - N/A   Clear
2:11 AM 55.4 °F 53.6 °F 94% 30.20 in 10.0 mi NNE 3.5 mph - N/A   Clear
2:31 AM 57.2 °F 53.6 °F 88% 30.20 in 10.0 mi NNE 3.5 mph - N/A   Clear
2:51 AM 57.2 °F 53.6 °F 88% 30.19 in 10.0 mi NNE 4.6 mph - N/A   Scattered Clouds
3:11 AM 59.0 °F 53.6 °F 82% 30.18 in 10.0 mi NNE 4.6 mph - N/A   Scattered Clouds
3:31 AM 59.0 °F 53.6 °F 82% 30.18 in 10.0 mi NE 3.5 mph - N/A   Clear
3:51 AM 57.2 °F 53.6 °F 88% 30.18 in 10.0 mi Calm Calm - N/A   Clear
4:11 AM 55.4 °F 53.6 °F 94% 30.17 in 10.0 mi Calm Calm - N/A   Clear
4:31 AM 55.4 °F 55.4 °F 100% 30.17 in 10.0 mi NNE 4.6 mph - N/A   Clear
4:52 AM 57.2 °F 55.4 °F 94% 30.17 in 10.0 mi NE 4.6 mph - N/A   Clear
5:12 AM 57.2 °F 55.4 °F 94% 30.17 in 10.0 mi Calm Calm - N/A   Clear
5:32 AM 57.2 °F 55.4 °F 94% 30.17 in 10.0 mi North 3.5 mph - N/A   Scattered Clouds
5:52 AM 59.0 °F 55.4 °F 88% 30.17 in 10.0 mi NNE 3.5 mph - N/A   Scattered Clouds
6:12 AM 57.2 °F 55.4 °F 94% 30.18 in 10.0 mi NNE 3.5 mph - N/A   Clear
6:32 AM 59.0 °F 55.4 °F 88% 30.18 in 10.0 mi NE 4.6 mph - N/A   Scattered Clouds
6:52 AM 59.0 °F 55.4 °F 88% 30.18 in 10.0 mi NE 4.6 mph - N/A   Scattered Clouds
7:12 AM 59.0 °F 55.4 °F 88% 30.18 in 10.0 mi NNE 4.6 mph - N/A   Clear
7:32 AM 59.0 °F 55.4 °F 88% 30.18 in 10.0 mi NE 3.5 mph - N/A   Clear
7:52 AM 59.0 °F 55.4 °F 88% 30.18 in 10.0 mi NNE 3.5 mph - N/A   Clear
8:12 AM 59.0 °F 55.4 °F 88% 30.18 in 10.0 mi NE 4.6 mph - N/A   Clear
8:32 AM 60.8 °F 57.2 °F 88% 30.18 in 10.0 mi NE 4.6 mph - N/A   Scattered Clouds
8:52 AM 60.8 °F 57.2 °F 88% 30.18 in 10.0 mi NE 4.6 mph - N/A   Scattered Clouds
9:12 AM 62.6 °F 55.4 °F 77% 30.18 in 10.0 mi NNE 6.9 mph - N/A   Scattered Clouds
9:32 AM 62.6 °F 55.4 °F 77% 30.18 in 10.0 mi NE 4.6 mph - N/A   Scattered Clouds
9:52 AM 62.6 °F 55.4 °F 77% 30.18 in 10.0 mi ENE 4.6 mph - N/A   Scattered Clouds
10:12 AM 64.4 °F 57.2 °F 77% 30.18 in 10.0 mi ENE 5.8 mph - N/A   Scattered Clouds
10:32 AM 64.4 °F 55.4 °F 73% 30.18 in 10.0 mi NE 5.8 mph - N/A   Scattered Clouds
10:52 AM 66.2 °F 55.4 °F 68% 30.18 in 10.0 mi East 8.1 mph - N/A   Scattered Clouds
11:12 AM 69.8 °F 55.4 °F 60% 30.18 in 10.0 mi East 6.9 mph - N/A   Scattered Clouds
11:32 AM 69.8 °F 55.4 °F 60% 30.17 in 10.0 mi ENE 6.9 mph - N/A   Clear
11:52 AM 68.0 °F 53.6 °F 60% 30.16 in 10.0 mi ENE 6.9 mph - N/A   Clear
12:12 PM 69.8 °F 51.8 °F 53% 30.15 in 10.0 mi ESE 4.6 mph - N/A   Clear
12:32 PM 69.8 °F 53.6 °F 56% 30.15 in 10.0 mi East 3.5 mph - N/A   Scattered Clouds
12:52 PM 69.8 °F 51.8 °F 53% 30.15 in 10.0 mi NNE 5.8 mph - N/A   Clear
1:12 PM 71.6 °F 51.8 °F 50% 30.14 in 10.0 mi NNE 5.8 mph - N/A   Clear
1:32 PM 69.8 °F 55.4 °F 60% 30.14 in 10.0 mi NW 8.1 mph - N/A   Clear
1:53 PM 69.8 °F 55.4 °F 60% 30.13 in 10.0 mi NNW 6.9 mph - N/A   Clear
2:13 PM 69.8 °F 55.4 °F 60% 30.12 in 10.0 mi NNW 9.2 mph - N/A   Clear
2:33 PM 69.8 °F 55.4 °F 60% 30.11 in 10.0 mi NNW 8.1 mph - N/A   Clear
2:53 PM 69.8 °F 55.4 °F 60% 30.11 in 10.0 mi NNW 8.1 mph - N/A   Clear
3:13 PM 69.8 °F 55.4 °F 60% 30.10 in 10.0 mi North 9.2 mph - N/A   Clear
3:33 PM 69.8 °F 53.6 °F 56% 30.09 in 10.0 mi NNW 8.1 mph - N/A   Clear
3:53 PM 69.8 °F 53.6 °F 56% 30.09 in 10.0 mi NNW 6.9 mph - N/A   Clear
4:13 PM 71.6 °F 53.6 °F 53% 30.09 in 10.0 mi North 8.1 mph - N/A   Clear
4:33 PM 71.6 °F 53.6 °F 53% 30.08 in 10.0 mi Calm Calm - N/A   Clear
4:53 PM 71.6 °F 53.6 °F 53% 30.07 in 10.0 mi NNW 5.8 mph - N/A   Clear
5:13 PM 69.8 °F 53.6 °F 56% 30.07 in 10.0 mi North 5.8 mph - N/A   Clear
5:33 PM 69.8 °F 53.6 °F 56% 30.07 in 10.0 mi North 4.6 mph - N/A   Clear
5:53 PM 69.8 °F 51.8 °F 53% 30.07 in 10.0 mi North 3.5 mph - N/A   Clear
6:13 PM 69.8 °F 53.6 °F 56% 30.08 in 10.0 mi Calm Calm - N/A   Clear
6:33 PM 68.0 °F 53.6 °F 60% 30.08 in 10.0 mi Calm Calm - N/A   Clear
6:53 PM 64.4 °F 53.6 °F 68% 30.08 in 10.0 mi Calm Calm - N/A   Clear
7:13 PM 64.4 °F 53.6 °F 68% 30.08 in 10.0 mi Calm Calm - N/A   Clear
7:33 PM 62.6 °F 53.6 °F 72% 30.09 in 10.0 mi Calm Calm - N/A   Clear
7:53 PM 62.6 °F 53.6 °F 72% 30.09 in 10.0 mi Calm Calm - N/A   Clear
8:13 PM 64.4 °F 53.6 °F 68% 30.09 in 10.0 mi ESE 4.6 mph - N/A   Clear
8:33 PM 62.6 °F 51.8 °F 68% 30.09 in 10.0 mi SE 5.8 mph - N/A   Clear
8:53 PM 62.6 °F 51.8 °F 68% 30.09 in 10.0 mi SE 4.6 mph - N/A   Clear
9:13 PM 62.6 °F 51.8 °F 68% 30.08 in 10.0 mi SE 5.8 mph - N/A   Clear
9:33 PM 60.8 °F 51.8 °F 72% 30.09 in 10.0 mi SE 4.6 mph - N/A   Clear
9:53 PM 60.8 °F 51.8 °F 72% 30.09 in 10.0 mi ESE 4.6 mph - N/A   Clear
10:14 PM 60.8 °F 51.8 °F 72% 30.09 in 10.0 mi ESE 4.6 mph - N/A   Clear
10:34 PM 59.0 °F 51.8 °F 77% 30.09 in 10.0 mi ESE 4.6 mph - N/A   Clear
10:54 PM 60.8 °F 51.8 °F 72% 30.08 in 10.0 mi ESE 4.6 mph - N/A   Clear
11:14 PM 59.0 °F 51.8 °F 77% 30.09 in 10.0 mi ESE 4.6 mph - N/A   Clear
11:34 PM 59.0 °F 51.8 °F 77% 30.08 in 10.0 mi ESE 4.6 mph - N/A   Clear
11:54 PM 59.0 °F 51.8 °F 77% 30.08 in 10.0 mi ESE 3.5 mph - N/A   Clear